Regional Weather Roundup
Issued by NWS

Home | Current Version | Previous Version | Graphics & Text | Print | Product List | Glossary Off
Versions: 1 2 3 4 5 6 7 8 9 10 11 12 13 14 15 16 17 18 19 20 21 22 23 24 25 26 27 28 29 30 31 32 33 34 35 36 37 38 39 40 41 42 43 44 45 46 47 48 49 50

000
ASUS43 KFSD 211602
RWRSD

WEATHER ROUNDUP FOR SOUTH DAKOTA
NATIONAL WEATHER SERVICE SIOUX FALLS SD
1100 AM CDT SAT APR 21 2018

NOTE: "FAIR" INDICATES FEW OR NO CLOUDS BELOW 12,000 FEET WITH NO
SIGNIFICANT WEATHER AND/OR OBSTRUCTIONS TO VISIBILITY.


SDZ001>005-009-010-012>017-211700-
NORTHWEST AND NORTH CENTRAL SOUTH DAKOTA

CITY           SKY/WX    TMP DP  RH WIND       PRES   REMARKS
BUFFALO          N/A     49  37  63 S15       30.10F
FAITH            N/A     46  40  79 S21       30.23F
MOBRIDGE       CLOUDY    50  40  68 S9        30.26F
$$

SDZ012>016-024>037-041>051-057-063-072>074-211700-
SOUTHWEST AND SOUTH CENTRAL SOUTH DAKOTA

CITY           SKY/WX    TMP DP  RH WIND       PRES   REMARKS
RAPID CTY ARPT CLOUDY    43  37  79 S15       30.21S
PIERRE         CLOUDY    44  42  93 S13       30.30S
CUSTER         FOG       32  31  96 SW5       30.17F VSB<1/4 WCI  27
ELLSWORTH AFB  PTSUNNY  N/A N/A N/A S20       30.20F
PHILIP         CLOUDY    44  40  85 SE13      30.28R
PINE RIDGE     CLOUDY    40  36  86 S9        30.24R
SPEARFISH      FAIR      48  34  57 E5        30.16S
WINNER         LGT RAIN  42  38  85 E5        30.31F FOG
$$

SDZ004>011-016>023-039-040-211700-
NORTHEAST SOUTH DAKOTA

CITY           SKY/WX    TMP DP  RH WIND       PRES   REMARKS
ABERDEEN       MOSUNNY   53  39  59 S10       30.35F
WATERTOWN      CLOUDY    48  36  63 SE5       30.35F
BROOKINGS      CLOUDY    45  33  63 E8        30.36F
SISSETON         N/A     52  38  58 CALM      30.36S
$$

SDZ017-020-022-023-036>040-048>070-211700-
SOUTHEAST SOUTH DAKOTA

CITY           SKY/WX    TMP DP  RH WIND       PRES   REMARKS
SIOUX FALLS    CLOUDY    43  32  65 E8        30.35F
HURON          CLOUDY    43  34  70 S6        30.35S
CHAMBERLAIN    CLOUDY    44  43  98 SW7       30.33S
MITCHELL       CLOUDY    42  34  73 S6        30.35S
YANKTON        CLOUDY    44  34  67 NE9       30.33F
$$

ABBREVIATIONS USED IN REMARKS
   TC - TEMPERATURE IN CELSIUS
  WCI - WIND CHILL INDEX
   HX - HEAT INDEX
  VSB - VISIBILITY




USA.gov is the U.S. government's official web portal to all federal, state and local government web resources and services.